TimeCDT,TemperatureF,Dew PointF,Humidity,Sea Level PressureIn,VisibilityMPH,Wind Direction,Wind SpeedMPH,Gust SpeedMPH,PrecipitationIn,Events,Conditions,WindDirDegrees,DateUTC
12:15 AM,80.6,73.4,79,29.94,10.0,SSW,5.8,-,N/A,,Clear,210,2013-08-07 05:15:00
12:35 AM,80.6,75.2,84,29.94,10.0,SSW,6.9,-,N/A,,Clear,200,2013-08-07 05:35:00
12:55 AM,80.6,75.2,84,29.95,10.0,SSW,4.6,-,N/A,,Clear,200,2013-08-07 05:55:00
1:15 AM,80.6,73.4,79,29.95,10.0,SSW,5.8,-,N/A,,Clear,210,2013-08-07 06:15:00
1:35 AM,80.6,75.2,84,29.95,10.0,SW,8.1,-,N/A,,Clear,220,2013-08-07 06:35:00
1:55 AM,80.6,75.2,84,29.95,10.0,SW,6.9,-,N/A,,Clear,230,2013-08-07 06:55:00
2:15 AM,80.6,75.2,84,29.95,10.0,SW,6.9,-,N/A,,Clear,230,2013-08-07 07:15:00
2:35 AM,80.6,75.2,84,29.95,10.0,SW,6.9,-,N/A,,Clear,220,2013-08-07 07:35:00
2:55 AM,78.8,75.2,89,29.95,10.0,SW,4.6,-,N/A,,Clear,230,2013-08-07 07:55:00
3:15 AM,78.8,75.2,89,29.95,10.0,SW,4.6,-,N/A,,Clear,220,2013-08-07 08:15:00
3:35 AM,78.8,75.2,89,29.95,10.0,SSW,5.8,-,N/A,,Clear,200,2013-08-07 08:35:00
3:55 AM,78.8,75.2,89,29.94,10.0,SSW,4.6,-,N/A,,Clear,210,2013-08-07 08:55:00
4:15 AM,78.8,75.2,89,29.94,10.0,South,4.6,-,N/A,,Clear,190,2013-08-07 09:15:00
4:35 AM,77.0,75.2,94,29.93,9.0,South,4.6,-,N/A,,Clear,190,2013-08-07 09:35:00
4:55 AM,77.0,73.4,89,29.93,8.0,SSW,5.8,-,N/A,,Clear,210,2013-08-07 09:55:00
5:15 AM,77.0,75.2,94,29.93,7.0,SW,4.6,-,N/A,,Clear,220,2013-08-07 10:15:00
5:35 AM,77.0,75.2,94,29.93,7.0,SSW,4.6,-,N/A,,Partly Cloudy,210,2013-08-07 10:35:00
5:55 AM,77.0,75.2,94,29.94,7.0,SW,3.5,-,N/A,,Mostly Cloudy,220,2013-08-07 10:55:00
6:15 AM,77.0,75.2,94,29.94,7.0,SSW,3.5,-,N/A,,Overcast,200,2013-08-07 11:15:00
6:35 AM,77.0,75.2,94,29.95,6.0,SW,4.6,-,N/A,,Overcast,220,2013-08-07 11:35:00
6:55 AM,78.8,75.2,89,29.94,6.0,SW,4.6,-,N/A,,Overcast,220,2013-08-07 11:55:00
7:15 AM,78.8,75.2,89,29.95,6.0,SW,4.6,-,N/A,,Overcast,220,2013-08-07 12:15:00
7:35 AM,78.8,75.2,89,29.96,7.0,Calm,Calm,-,N/A,,Mostly Cloudy,0,2013-08-07 12:35:00
7:55 AM,78.8,75.2,89,29.97,8.0,WSW,8.1,-,N/A,,Mostly Cloudy,240,2013-08-07 12:55:00
8:15 AM,80.6,75.2,84,29.97,9.0,SW,5.8,-,N/A,,Scattered Clouds,230,2013-08-07 13:15:00
8:35 AM,80.6,75.2,84,29.97,9.0,WSW,5.8,-,N/A,,Clear,240,2013-08-07 13:35:00
8:55 AM,82.4,77.0,84,29.98,9.0,SSW,4.6,-,N/A,,Scattered Clouds,210,2013-08-07 13:55:00
9:15 AM,82.4,75.2,79,29.98,9.0,SW,6.9,-,N/A,,Scattered Clouds,220,2013-08-07 14:15:00
9:35 AM,84.2,75.2,74,29.99,10.0,West,8.1,-,N/A,,Partly Cloudy,260,2013-08-07 14:35:00
9:55 AM,84.2,75.2,74,30.00,10.0,SW,4.6,-,N/A,,Scattered Clouds,230,2013-08-07 14:55:00
10:15 AM,84.2,75.2,74,30.00,10.0,SSW,6.9,-,N/A,,Mostly Cloudy,210,2013-08-07 15:15:00
10:35 AM,86.0,77.0,74,30.00,10.0,Calm,Calm,-,N/A,,Partly Cloudy,0,2013-08-07 15:35:00
10:55 AM,87.8,75.2,66,30.00,10.0,SW,5.8,-,N/A,,Clear,220,2013-08-07 15:55:00
11:15 AM,87.8,75.2,66,29.99,10.0,WSW,5.8,-,N/A,,Clear,240,2013-08-07 16:15:00
11:35 AM,87.8,75.2,66,29.99,10.0,West,8.1,-,N/A,,Clear,260,2013-08-07 16:35:00
11:55 AM,89.6,75.2,62,29.98,10.0,SW,3.5,-,N/A,,Clear,230,2013-08-07 16:55:00
12:15 PM,89.6,75.2,62,29.98,10.0,SW,3.5,-,N/A,,Partly Cloudy,220,2013-08-07 17:15:00
12:35 PM,89.6,75.2,62,29.98,10.0,South,4.6,-,N/A,,Clear,190,2013-08-07 17:35:00
12:55 PM,89.6,75.2,62,29.97,10.0,SSW,8.1,-,N/A,,Clear,210,2013-08-07 17:55:00
1:15 PM,91.4,75.2,59,29.97,10.0,SSW,4.6,-,N/A,,Partly Cloudy,200,2013-08-07 18:15:00
1:35 PM,91.4,75.2,59,29.96,10.0,SW,4.6,-,N/A,,Partly Cloudy,230,2013-08-07 18:35:00
1:55 PM,91.4,75.2,59,29.96,10.0,West,4.6,-,N/A,,Clear,280,2013-08-07 18:55:00
2:15 PM,91.4,75.2,59,29.95,10.0,WSW,5.8,-,N/A,,Clear,240,2013-08-07 19:15:00
2:35 PM,91.4,73.4,55,29.95,10.0,SW,5.8,-,N/A,,Partly Cloudy,230,2013-08-07 19:35:00
2:55 PM,93.2,73.4,52,29.94,10.0,SW,6.9,-,N/A,,Partly Cloudy,220,2013-08-07 19:55:00
3:15 PM,93.2,75.2,56,29.94,10.0,SW,8.1,-,N/A,,Clear,220,2013-08-07 20:15:00
3:35 PM,93.2,73.4,52,29.94,10.0,SSW,6.9,-,N/A,,Clear,200,2013-08-07 20:35:00
3:55 PM,93.2,73.4,52,29.93,10.0,SSW,4.6,-,N/A,,Clear,210,2013-08-07 20:55:00
4:15 PM,93.2,73.4,52,29.93,10.0,SW,6.9,-,N/A,,Clear,220,2013-08-07 21:15:00
4:35 PM,93.2,73.4,52,29.92,10.0,South,6.9,-,N/A,,Clear,180,2013-08-07 21:35:00
4:55 PM,93.2,73.4,52,29.92,10.0,SSW,5.8,-,N/A,,Clear,210,2013-08-07 21:55:00
5:15 PM,93.2,73.4,52,29.91,10.0,SSW,5.8,-,N/A,,Clear,200,2013-08-07 22:15:00
5:35 PM,93.2,73.4,52,29.90,10.0,South,6.9,-,N/A,,Clear,190,2013-08-07 22:35:00
5:55 PM,91.4,71.6,52,29.90,10.0,South,6.9,-,N/A,,Clear,190,2013-08-07 22:55:00
6:15 PM,91.4,71.6,52,29.91,10.0,SSW,5.8,-,N/A,,Clear,200,2013-08-07 23:15:00
6:35 PM,91.4,71.6,52,29.90,10.0,South,3.5,-,N/A,,Clear,190,2013-08-07 23:35:00
6:55 PM,89.6,73.4,59,29.90,10.0,South,4.6,-,N/A,,Clear,180,2013-08-07 23:55:00
7:15 PM,89.6,73.4,59,29.90,10.0,South,4.6,-,N/A,,Clear,180,2013-08-08 00:15:00
7:35 PM,87.8,73.4,62,29.90,10.0,South,4.6,-,N/A,,Clear,190,2013-08-08 00:35:00
7:55 PM,84.2,75.2,74,29.90,10.0,SSE,3.5,-,N/A,,Clear,150,2013-08-08 00:55:00
8:15 PM,82.4,75.2,79,29.90,10.0,SSE,4.6,-,N/A,,Clear,160,2013-08-08 01:15:00
8:35 PM,82.4,75.2,79,29.90,10.0,Calm,Calm,-,N/A,,Clear,0,2013-08-08 01:35:00
8:55 PM,82.4,73.4,74,29.90,10.0,Calm,Calm,-,N/A,,Clear,0,2013-08-08 01:55:00
9:15 PM,80.6,73.4,79,29.91,10.0,SSE,3.5,-,N/A,,Clear,160,2013-08-08 02:15:00
9:35 PM,80.6,75.2,84,29.92,10.0,SSE,3.5,-,N/A,,Clear,160,2013-08-08 02:35:00
9:55 PM,78.8,75.2,89,29.92,10.0,SSE,3.5,-,N/A,,Clear,160,2013-08-08 02:55:00
10:15 PM,80.6,73.4,79,29.92,10.0,SSE,3.5,-,N/A,,Clear,160,2013-08-08 03:15:00
10:35 PM,78.8,73.4,83,29.92,10.0,Calm,Calm,-,N/A,,Clear,0,2013-08-08 03:35:00
10:55 PM,78.8,73.4,83,29.92,10.0,SSE,3.5,-,N/A,,Clear,160,2013-08-08 03:55:00
11:15 PM,78.8,73.4,83,29.92,10.0,Calm,Calm,-,N/A,,Clear,0,2013-08-08 04:15:00
11:35 PM,78.8,73.4,83,29.92,10.0,Calm,Calm,-,N/A,,Clear,0,2013-08-08 04:35:00
11:55 PM,78.8,73.4,83,29.93,10.0,SSE,3.5,-,N/A,,Clear,150,2013-08-08 04:55:00